Theta_e
310 309 308 307 307 306 304 304 297 310 310 297 299 292 291 293 294 297 294 295 293 291 291 289 289 289 291 296 296 291 294 290 285 288 293 296 292 291 289 285 284 288 288 292
310 309 308 307 307 307 302 298 299 310 306 292 290 292 291 293 293 293 293 292 294 295 292 286 290 291 296 296 294 292 294 289 283 285 291 294 290 292 290 292 290 287 286 291
309 309 308 307 307 307 303 298 293 300 301 300 291 290 290 291 295 295 295 293 295 293 290 293 288 290 293 295 295 297 295 291 287 283 286 290 287 289 291 290 287 287 289 292
309 307 307 307 306 306 303 297 293 296 293 295 294 293 291 289 289 295 296 292 292 290 287 290 289 291 292 294 295 295 292 287 289 290 291 290 289 288 289 289 290 287 290 292
306 305 305 306 306 306 303 295 292 296 295 295 292 292 290 289 290 291 290 290 292 291 288 289 287 290 290 288 293 291 292 287 290 287 290 290 288 290 290 290 291 291 292 291
305 305 305 305 306 306 298 298 296 292 292 292 289 291 291 291 293 294 295 293 291 291 294 296 297 296 295 294 289 289 289 287 287 284 289 289 285 289 290 291 293 293 289 294
305 304 305 305 305 306 301 299 297 290 288 290 289 290 291 290 293 292 294 295 292 298 302 301 300 298 297 297 295 292 288 289 287 285 287 278 289 294 295 293 294 296 296 297
304 304 304 304 305 305 304 301 296 291 286 290 291 291 290 291 292 294 295 296 300 304 299 293 291 292 293 294 294 291 290 289 286 283 283 287 290 293 292 293 293 299 298 300
304 305 304 304 305 305 306 306 302 294 288 291 293 289 292 288 288 292 295 300 304 302 294 290 285 285 287 287 289 291 290 290 286 285 280 278 291 297 300 298 289 301 302 302
303 303 303 304 304 304 305 305 308 297 289 293 295 290 289 291 290 288 291 294 297 301 292 289 286 285 290 284 284 286 286 285 282 283 282 285 294 296 299 286 293 304 305 305
302 302 302 302 303 304 304 303 309 300 293 294 297 298 293 293 291 287 293 293 296 295 291 289 289 288 289 286 289 285 285 284 286 285 282 281 294 292 289 298 304 304 305 306
301 301 301 302 302 303 304 300 307 306 296 295 301 301 302 300 298 293 292 293 293 294 292 291 292 290 290 289 285 289 285 285 285 285 286 293 293 289 294 299 301 303 303 305
299 300 300 301 301 302 302 302 304 301 295 296 298 299 304 307 306 306 292 296 300 296 298 291 292 288 292 286 288 287 291 293 287 287 291 289 293 299 298 297 300 300 300 302
300 301 302 302 302 302 302 300 304 300 295 288 296 304 303 307 307 305 304 301 304 301 298 292 290 289 296 292 293 292 293 296 292 292 295 295 296 298 300 300 301 301 307 311
301 302 303 302 302 302 302 302 302 301 295 289 292 301 305 306 306 303 303 301 298 295 292 291 290 296 295 297 297 294 298 294 292 290 297 294 296 299 301 300 301 302 303 307
301 302 301 301 301 301 301 295 302 304 301 291 288 303 302 304 306 305 301 299 297 295 295 294 296 301 295 292 293 299 301 302 301 297 300 299 299 298 298 298 301 302 302 304
301 301 302 301 301 302 297 299 301 304 302 292 289 291 303 303 304 303 300 300 298 296 296 296 298 298 296 296 292 299 300 302 301 302 300 296 298 295 298 299 301 302 302 303
302 301 300 301 305 302 299 303 304 304 297 295 289 291 298 304 301 300 302 299 298 297 297 301 300 299 299 294 298 299 300 301 300 299 302 300 300 299 298 301 301 300 299 300
301 299 300 305 303 298 301 304 308 303 297 290 291 290 291 303 301 305 300 300 293 299 295 297 297 296 294 298 298 299 300 300 300 300 300 299 299 297 298 300 299 301 297 298
299 298 300 297 303 300 302 301 295 293 294 294 291 298 293 299 299 299 301 301 296 293 296 300 296 297 302 302 302 303 302 303 302 299 296 298 298 295 296 298 300 300 297 298
296 293 292 298 301 302 300 295 292 291 289 293 295 295 292 300 294 296 301 298 300 292 296 296 296 298 301 304 303 305 303 305 303 303 301 300 298 296 297 297 299 298 298 297
295 295 296 295 294 295 291 291 294 293 290 296 295 294 294 295 300 297 300 295 298 289 300 295 293 299 303 303 303 304 305 305 304 303 301 300 298 297 297 298 298 299 300 298
297 292 288 291 293 285 284 283 287 291 296 293 294 294 299 295 296 296 296 292 292 301 294 292 297 302 303 304 304 305 306 306 304 303 302 301 299 298 298 298 299 298 299 300
290 288 284 287 285 285 288 289 292 295 294 295 295 294 294 296 288 289 288 296 297 290 288 290 297 303 304 305 304 305 304 305 304 303 303 300 299 298 298 299 299 297 296 298
287 288 281 287 292 293 293 290 292 294 296 294 292 294 296 294 289 291 293 291 288 292 293 298 301 304 306 305 305 305 305 306 305 305 304 302 300 298 298 299 300 299 298 297
289 287 285 290 288 288 290 292 292 294 294 295 294 291 291 292 293 289 290 289 288 293 300 302 303 305 306 307 307 306 306 307 306 306 305 304 301 299 299 300 300 299 297 297
286 289 292 290 290 289 290 291 292 295 291 289 292 288 288 297 290 289 296 292 297 301 302 304 306 305 307 308 307 307 307 307 307 306 306 305 303 302 300 298 299 299 298 297
Wind_Speed
15 17 20 21 21 23 10 5 4 4 5 6 2 4 8 7 7 5 8 9 12 11 13 11 15 13 8 12 12 14 16 7 13 15 6 11 10 18 4 6 17 13 11 5
15 14 18 20 21 17 7 7 4 2 6 3 6 7 9 7 9 5 4 9 8 14 17 9 8 12 11 10 14 7 6 8 10 11 8 10 11 15 15 22 4 18 12 5
15 13 16 18 19 18 6 5 4 3 2 2 6 11 5 5 3 11 6 10 13 13 13 13 11 18 13 13 14 17 10 14 15 14 18 9 8 10 13 11 11 14 16 16
15 15 16 17 17 19 5 2 3 4 4 4 9 9 7 9 7 4 9 7 10 11 11 19 23 21 15 17 18 17 6 11 16 18 21 18 17 18 16 17 18 19 19 21
15 15 16 16 16 20 2 5 4 4 12 8 8 1 5 9 6 12 13 13 14 15 19 21 27 26 20 9 7 17 6 6 14 19 19 20 22 20 19 20 20 19 23 28
14 15 16 17 16 10 2 1 1 2 7 6 6 5 8 15 17 10 9 11 16 21 23 20 25 24 24 18 9 8 8 6 10 15 15 14 17 20 21 22 21 21 23 24
14 14 15 16 16 12 2 1 1 2 5 5 9 11 15 15 17 19 22 18 16 15 23 25 22 20 17 14 13 10 8 16 10 7 7 10 13 5 8 12 14 19 24 22
14 14 15 15 16 15 3 1 2 2 4 8 16 5 14 14 15 17 16 13 12 16 16 10 11 5 4 4 2 5 10 11 6 6 10 15 19 14 15 11 14 15 21 21
16 15 15 14 14 13 7 3 3 2 4 5 7 17 13 9 9 11 9 13 13 9 4 5 6 6 7 5 7 2 8 10 8 4 6 6 6 5 5 4 16 12 17 17
16 15 16 15 15 13 7 5 7 3 4 6 9 6 9 4 6 6 13 9 8 3 6 2 5 5 7 6 8 4 1 3 12 12 7 6 5 2 5 10 4 6 10 14
16 16 16 16 15 14 7 7 6 4 5 12 19 21 13 7 5 3 8 10 2 5 6 4 4 5 5 4 10 6 4 4 2 7 6 6 7 9 12 9 6 9 11 10
16 16 16 15 14 15 10 7 3 3 6 8 20 22 24 26 23 9 3 7 10 4 2 1 6 4 4 9 6 3 2 3 4 4 3 8 14 20 25 24 18 16 13 14
16 17 16 16 14 12 9 6 5 3 4 11 8 6 2 8 14 15 5 7 4 2 2 1 4 5 2 4 5 3 3 6 4 4 6 12 13 13 6 14 18 14 15 17
18 17 16 15 14 12 10 7 5 3 3 5 4 3 10 9 10 14 21 13 1 3 1 3 3 4 3 4 9 5 4 9 10 7 9 11 11 17 16 4 3 5 9 6
18 18 18 17 17 14 10 8 9 8 5 5 8 19 7 3 7 13 15 15 12 3 3 4 3 4 3 6 7 2 5 6 8 9 13 7 9 14 18 14 13 11 10 8
21 20 22 22 19 13 4 4 2 3 5 3 5 7 6 5 6 9 11 8 7 4 3 3 3 4 2 4 4 8 10 11 12 9 9 12 14 14 15 14 12 12 10 9
23 25 25 22 13 7 5 4 3 6 5 3 5 5 4 3 4 3 4 8 4 4 3 4 4 3 3 4 3 8 8 10 11 12 12 10 14 11 13 13 10 9 9 11
24 26 22 16 3 2 5 5 8 4 2 3 4 6 5 4 4 4 4 4 3 5 3 4 3 2 4 4 5 4 6 7 9 10 7 9 10 13 11 6 6 9 11 12
26 22 15 5 4 3 1 7 5 5 2 3 3 3 4 3 5 1 3 2 4 2 3 3 1 5 4 3 5 3 6 7 8 9 12 10 13 14 12 13 11 11 12 13
21 8 5 3 1 11 7 5 3 3 4 4 5 5 8 8 4 3 2 5 3 3 5 4 4 5 2 3 5 4 4 6 9 11 12 12 15 14 14 15 12 12 11 11
5 5 3 8 8 5 5 4 5 4 4 5 5 7 6 2 5 4 2 4 1 3 4 3 2 2 3 8 6 5 5 6 6 10 10 10 11 11 12 13 14 12 13 12
9 11 10 4 4 5 5 5 4 5 4 3 3 1 3 3 5 4 4 3 2 3 1 3 2 3 7 8 6 7 6 5 7 10 11 9 10 10 12 13 13 12 12 11
1 2 3 3 2 3 4 4 4 3 2 4 3 2 2 2 2 4 3 4 2 2 3 3 2 4 6 8 7 9 6 7 7 9 9 10 11 12 11 12 12 12 12 11
4 4 4 4 1 3 3 8 8 5 3 6 4 4 3 1 1 1 3 3 1 3 3 1 4 2 7 7 8 8 8 7 7 7 8 9 10 11 11 12 12 10 12 12
4 3 4 3 5 7 7 6 5 7 7 6 7 6 5 4 4 4 3 4 4 3 1 3 4 6 4 8 8 9 9 7 7 7 7 8 9 10 11 12 11 11 11 12
3 4 5 4 8 8 5 4 3 6 9 7 5 6 4 4 2 2 4 2 2 2 3 5 4 5 5 7 8 8 8 9 7 7 8 7 7 9 9 10 11 12 12 12
3 2 4 5 7 9 8 9 8 6 8 5 5 6 2 1 1 3 2 3 4 4 6 7 6 6 4 6 7 7 7 8 9 8 8 9 7 6 7 9 9 10 12 12
Wind_Direction
332 338 340 343 350 346 341 313 264 39 304 247 232 280 343 337 296 276 261 279 281 294 301 289 289 286 264 302 305 297 293 289 280 279 250 200 197 241 279 270 227 248 304 75
335 338 343 344 349 6 324 322 301 87 292 342 328 323 294 268 288 295 287 293 285 302 287 297 290 287 290 288 289 292 334 246 278 259 163 204 232 212 203 237 279 279 236 168
343 348 344 345 347 354 315 302 302 145 16 13 319 334 304 307 252 279 272 268 299 292 292 274 275 281 282 277 272 288 285 260 260 280 302 310 290 274 276 270 278 254 244 254
350 352 347 347 345 341 297 339 47 3 305 336 321 296 282 302 318 291 294 282 258 299 294 298 288 281 292 290 277 279 257 247 258 266 277 277 276 271 261 252 261 264 264 264
346 343 344 340 343 333 286 345 345 344 291 304 299 40 291 298 320 310 284 284 298 303 284 282 290 290 291 263 263 216 205 267 263 267 260 256 265 265 260 254 250 253 260 261
338 342 341 336 344 348 322 114 116 264 304 309 312 308 330 314 314 307 272 287 303 293 289 293 289 287 280 267 241 211 188 223 252 253 243 256 264 260 253 251 247 241 246 257
336 334 334 333 338 348 293 311 262 264 281 325 302 296 306 305 308 294 295 296 287 284 310 301 281 267 261 259 266 190 202 221 236 268 268 247 249 289 286 296 268 244 247 257
324 323 325 327 329 334 298 233 217 220 264 300 294 306 313 303 302 301 302 296 313 316 304 305 312 322 216 183 225 187 214 224 243 234 227 268 282 270 245 257 270 250 245 249
325 324 326 323 321 324 317 253 201 208 284 231 312 310 299 293 311 300 304 327 316 298 287 331 315 341 321 325 312 160 202 228 236 252 254 261 16 85 39 288 266 242 248 259
328 331 323 328 327 322 313 283 194 236 257 259 268 271 305 282 267 281 298 342 303 214 313 353 313 312 344 307 308 328 169 181 226 239 246 257 350 36 329 251 36 6 2 343
333 328 326 323 320 318 315 285 248 235 264 278 266 271 262 256 228 253 323 304 213 299 336 331 354 304 331 287 294 316 316 311 238 221 247 254 15 322 228 270 331 335 326 320
327 326 323 319 317 320 316 274 343 273 248 272 291 279 270 264 257 259 231 296 318 280 298 303 304 304 302 315 303 124 358 266 304 274 344 265 276 260 252 268 287 290 301 302
321 320 319 314 310 305 299 285 300 245 263 277 253 245 206 230 233 222 219 226 250 261 57 278 285 272 279 290 287 260 242 213 241 279 237 261 291 326 3 213 249 282 282 277
320 314 309 307 305 300 287 273 263 291 298 280 289 259 269 274 232 215 212 251 197 346 233 244 254 269 209 276 291 312 260 300 326 293 334 335 345 5 5 48 239 291 283 306
313 309 308 314 309 300 282 264 247 225 247 294 301 303 257 208 217 220 223 224 245 274 267 230 241 252 308 268 276 337 343 333 343 321 23 346 10 353 6 19 15 13 360 2
316 317 311 306 302 286 277 272 62 184 166 267 287 333 272 220 234 227 212 213 216 219 254 246 240 227 222 280 300 12 9 359 4 1 18 360 19 18 357 1 11 14 22 6
316 312 310 305 287 226 217 337 52 152 151 245 274 271 178 238 234 183 187 182 202 213 234 228 244 259 185 265 311 8 2 7 20 23 16 2 26 16 3 355 352 27 45 43
313 314 314 308 212 222 240 256 219 148 223 238 265 274 254 173 207 208 191 193 198 206 260 249 264 321 226 262 61 25 1 347 22 27 61 33 0 25 20 359 37 32 42 40
320 315 309 195 224 198 171 343 276 154 242 261 235 261 306 164 255 213 190 211 225 164 236 241 195 236 234 28 94 57 20 32 357 34 44 24 23 13 10 37 33 45 41 37
312 285 229 205 84 334 279 200 188 153 207 230 249 242 246 312 295 275 225 194 235 234 197 188 226 264 256 169 105 71 43 27 9 32 31 24 20 6 18 26 43 50 51 34
340 336 309 346 322 247 205 246 196 169 229 209 224 223 238 241 247 281 284 292 233 269 100 271 226 248 135 156 154 113 97 65 39 59 57 49 34 15 16 29 40 51 51 37
309 295 308 287 281 244 239 228 207 213 266 186 271 190 207 249 276 246 235 261 228 273 48 260 259 79 132 157 144 126 130 99 68 59 71 65 51 33 25 38 39 36 56 61
227 235 252 244 226 276 249 216 229 228 355 36 330 284 239 186 245 271 278 235 241 322 243 278 342 105 152 155 133 139 131 103 90 83 74 68 64 56 37 43 48 43 42 52
282 293 284 253 250 254 303 340 328 349 357 309 292 295 253 239 165 191 232 200 229 238 230 139 24 36 161 166 152 152 149 130 107 90 81 69 72 66 51 50 53 59 55 55
273 264 257 248 347 316 31 21 351 316 300 328 319 283 227 190 217 212 293 197 231 222 19 48 10 333 222 171 168 161 155 156 135 110 91 76 68 72 71 63 65 61 62 60
259 245 275 314 307 336 313 20 324 317 323 298 260 271 254 240 213 178 229 241 207 47 30 1 3 338 227 180 179 170 163 159 138 129 113 99 78 72 73 70 66 68 70 70
267 250 269 287 292 314 313 323 325 353 293 304 299 255 306 133 13 273 314 30 18 343 36 22 25 336 231 198 183 152 151 159 164 147 139 115 111 101 88 75 65 68 73 75